1511751600.94,8796,7.25,72912.0,-15.91,-16.83,-16.83,0,*5C
1511751602.16,8797,7.25,72912.3,-15.91,-16.83,-16.79,0,*58
1511751603.37,8798,7.25,72914.5,-15.91,-16.83,-16.79,0,*57
1511751604.58,8799,7.25,72916.8,-15.91,-16.93,-16.79,0,*57
1511751605.81,8800,7.25,72914.8,-15.93,-16.89,-16.89,0,*5E
1511751607.05,8801,7.25,72918.0,-15.93,-16.97,-16.83,0,*5A
1511751608.29,8802,7.25,72912.0,-15.93,-16.97,-16.97,0,*5C
1511751609.52,8803,7.25,72916.8,-15.93,-16.89,-16.89,0,*5D
1511751610.74,8804,7.25,72914.0,-15.91,-16.83,-16.83,0,*58
1511751611.95,8805,7.25,72912.5,-15.91,-16.83,-16.83,0,*59
1511751613.17,8806,7.25,72916.3,-15.91,-16.83,-16.79,0,*5F
1511751614.38,8807,7.25,72916.3,-15.91,-16.83,-16.79,0,*5E
1511751615.62,8808,7.25,72914.0,-15.93,-16.89,-16.83,0,*5C
1511751616.86,8809,7.25,72914.5,-15.93,-16.89,-16.83,0,*5D
1511751618.08,8810,7.25,72918.5,-15.91,-16.79,-16.75,0,*51
1511751619.29,8811,7.25,72914.3,-15.91,-16.83,-16.75,0,*55
1511751620.53,8812,7.25,72914.5,-15.89,-16.83,-16.83,0,*56
1511751621.74,8813,7.25,72914.0,-15.91,-16.79,-16.83,0,*5B
1511751622.95,8814,7.25,72916.5,-15.91,-16.83,-16.93,0,*58
1511751624.16,8815,7.25,72910.5,-15.91,-16.97,-16.83,0,*5D
1511751625.38,8816,7.25,72914.3,-15.91,-16.83,-16.79,0,*5E
1511751626.59,8817,7.25,72914.3,-15.91,-16.83,-16.79,0,*5F
1511751627.81,8818,7.25,72914.5,-15.91,-16.83,-16.79,0,*50
1511751629.02,8819,7.25,72916.5,-15.91,-16.83,-16.79,0,*51
1511751630.24,8820,7.25,72918.0,-15.91,-16.83,-16.79,0,*5B
1511751631.45,8821,7.25,72918.0,-15.91,-16.83,-16.79,0,*5A
1511751632.66,8822,7.25,72914.0,-15.91,-16.83,-16.79,0,*59
1511751633.88,8823,7.25,72912.5,-15.91,-16.83,-16.79,0,*58
1511751635.09,8824,7.25,72912.3,-15.91,-16.83,-16.83,0,*5A
1511751636.31,8825,7.25,72914.3,-15.91,-16.83,-16.79,0,*5E
1511751637.52,8826,7.25,72914.0,-15.91,-16.93,-16.79,0,*5C
1511751638.75,8827,7.25,72914.5,-15.89,-16.83,-16.83,0,*50
1511751639.97,8828,7.25,72914.5,-15.91,-16.83,-16.83,0,*56
1511751641.18,8829,7.25,72914.8,-15.91,-16.93,-16.83,0,*56
1511751642.39,8830,7.25,72912.5,-15.91,-16.83,-16.83,0,*5F
1511751643.6,8831,7.25,72912.3,-15.91,-16.79,-16.79,0,*5E
1511751644.82,8832,7.25,72914.3,-15.91,-16.79,-16.79,0,*5D
1511751646.03,8833,7.19,72912.3,-15.91,-16.79,-16.79,0,*5C
1511751647.25,8834,7.19,72912.3,-15.91,-16.79,-16.79,0,*5B
1511751648.46,8835,7.25,72914.3,-15.91,-16.79,-16.79,0,*5A
1511751649.67,8836,7.25,72916.8,-15.91,-16.79,-16.79,0,*59
1511751650.91,8837,7.25,72916.0,-15.93,-16.89,-16.83,0,*50
1511751652.15,8838,7.25,72914.8,-15.93,-16.89,-16.83,0,*5F
1511751653.39,8839,7.25,72914.0,-15.93,-16.89,-16.97,0,*5B
1511751654.62,8840,7.25,72918.5,-15.93,-16.97,-16.89,0,*55
1511751655.86,8841,7.25,72914.3,-15.93,-16.97,-16.89,0,*54
1511751657.09,8842,7.25,72914.8,-15.93,-16.89,-16.89,0,*58
1511751658.33,8843,7.25,72916.5,-15.93,-16.97,-16.97,0,*59
1511751659.53,8844,7.25,72918.8,-15.95,-16.97,-16.89,0,*57
1511751660.77,8845,7.25,72918.3,-15.93,-16.89,-16.89,0,*5F
1511751662.0,8846,7.25,72918.3,-15.93,-16.97,-16.89,0,*53
1511751663.23,8847,7.25,72916.0,-15.93,-16.97,-16.89,0,*52
1511751664.47,8848,7.25,72914.8,-15.93,-16.97,-16.89,0,*5D
1511751665.7,8849,7.25,72916.5,-15.93,-16.89,-16.89,0,*53
1511751666.94,8850,7.25,72918.0,-15.93,-16.89,-16.89,0,*5B
1511751668.17,8851,7.25,72916.5,-15.93,-16.97,-16.89,0,*55
1511751669.4,8852,7.25,72918.8,-15.93,-16.89,-16.89,0,*59
1511751670.64,8853,7.25,72916.8,-15.93,-16.89,-16.89,0,*58
1511751671.88,8854,7.25,72914.3,-15.93,-16.89,-16.83,0,*55
1511751673.09,8855,7.25,72914.8,-15.91,-16.83,-16.79,0,*59
1511751674.33,8856,7.25,72914.0,-15.93,-16.89,-16.83,0,*57
1511751675.57,8857,7.25,72914.5,-15.93,-16.83,-16.89,0,*56
1511751676.8,8858,7.25,72912.0,-15.93,-16.89,-16.89,0,*53
1511751678.03,8859,7.25,72914.3,-15.93,-16.89,-16.89,0,*52
1511751679.27,8860,7.25,72916.8,-15.93,-16.89,-16.89,0,*58
1511751680.48,8861,7.25,72916.8,-15.91,-16.83,-16.79,0,*5E
1511751681.72,8862,7.25,72914.8,-15.93,-16.89,-16.83,0,*50
1511751682.94,8863,7.25,72912.3,-15.95,-16.97,-16.83,0,*58
1511751684.17,8864,7.25,72914.8,-15.93,-16.89,-16.89,0,*5C
1511751685.4,8865,7.25,72916.0,-15.93,-16.89,-16.89,0,*5D
1511751686.62,8866,7.25,72912.0,-15.91,-16.83,-16.75,0,*55
1511751687.84,8867,7.25,72914.3,-15.91,-16.79,-16.79,0,*5D
1511751689.08,8868,7.25,72914.5,-15.93,-16.83,-16.83,0,*50
1511751690.32,8869,7.25,72918.0,-15.93,-16.83,-16.83,0,*51
1511751691.53,8870,7.25,72916.5,-15.95,-16.83,-16.79,0,*5A
1511751692.78,8871,7.25,72916.3,-15.93,-16.83,-16.83,0,*58
1511751693.99,8872,7.25,72916.3,-15.91,-16.79,-16.79,0,*59
1511751695.2,8873,7.25,72908.8,-15.91,-16.79,-16.79,0,*58
1511751696.42,8874,7.19,72906.8,-15.91,-16.79,-16.79,0,*5F
1511751697.66,8875,7.19,72904.3,-15.93,-16.83,-16.83,0,*5C
1511751698.9,8876,7.25,72908.0,-15.93,-16.83,-16.83,0,*5F
1511751700.14,8877,7.25,72910.3,-15.93,-16.83,-16.79,0,*5B
1511751701.35,8878,7.25,72912.8,-15.95,-16.79,-16.79,0,*57
1511751702.59,8879,7.25,72912.3,-15.93,-16.79,-16.79,0,*50
1511751703.81,8880,7.25,72914.0,-15.91,-16.79,-16.75,0,*58
1511751705.05,8881,7.25,72912.3,-15.93,-16.89,-16.83,0,*5D
1511751706.29,8882,7.19,72912.0,-15.93,-16.89,-16.89,0,*54
1511751707.5,8883,7.25,72914.3,-15.91,-16.79,-16.79,0,*57
1511751708.71,8884,7.25,72914.3,-15.91,-16.79,-16.79,0,*50
1511751709.93,8885,7.25,72912.3,-15.91,-16.83,-16.83,0,*51
1511751711.14,8886,7.25,72912.5,-15.91,-16.83,-16.79,0,*57
1511751712.38,8887,7.25,72914.5,-15.93,-16.89,-16.83,0,*5B
1511751713.62,8888,7.25,72918.0,-15.93,-16.89,-16.79,0,*51
1511751714.83,8889,7.25,72918.0,-15.91,-16.83,-16.79,0,*58
1511751716.05,8890,7.19,72912.0,-15.91,-16.83,-16.79,0,*50
1511751717.28,8891,7.25,72916.8,-15.93,-16.89,-16.89,0,*56
1511751718.52,8892,7.25,72918.3,-15.93,-16.89,-16.89,0,*55
1511751719.75,8893,7.25,72914.8,-15.93,-16.89,-16.89,0,*54
1511751720.98,8894,7.25,72918.0,-15.93,-16.97,-16.89,0,*5C
1511751722.22,8895,7.25,72920.0,-15.93,-16.89,-16.89,0,*52
1511751723.45,8896,7.25,72916.0,-15.93,-16.89,-16.89,0,*51
1511751724.69,8897,7.25,72918.8,-15.93,-16.89,-16.83,0,*5A
1511751725.93,8898,7.25,72920.0,-15.93,-16.89,-16.83,0,*55
1511751727.16,8899,7.25,72918.3,-15.93,-16.89,-16.89,0,*5E
1511751728.4,8900,7.25,72916.3,-15.93,-16.89,-16.79,0,*50
1511751729.62,8901,7.19,72914.0,-15.91,-16.83,-16.79,0,*59
1511751730.83,8902,7.25,72914.3,-15.91,-16.93,-16.79,0,*5B
1511751732.04,8903,7.25,72918.8,-15.91,-16.83,-16.79,0,*5B
1511751733.26,8904,7.25,72916.3,-15.91,-16.83,-16.75,0,*50
1511751734.47,8905,7.25,72912.8,-15.91,-16.79,-16.79,0,*58
1511751735.71,8906,7.25,72916.3,-15.93,-16.83,-16.83,0,*59
1511751736.93,8907,7.25,72916.3,-15.91,-16.79,-16.75,0,*56
1511751738.17,8908,7.19,72914.0,-15.93,-16.83,-16.83,0,*57
1511751739.41,8909,7.25,72918.3,-15.93,-16.83,-16.79,0,*53
1511751740.63,8910,7.25,72914.5,-15.91,-16.79,-16.75,0,*50
1511751741.87,8911,7.25,72918.0,-15.93,-16.83,-16.83,0,*5F
1511751743.11,8912,7.25,72916.8,-15.93,-16.83,-16.83,0,*5C
1511751744.35,8913,7.19,72912.3,-15.93,-16.83,-16.83,0,*5D
1511751745.57,8914,7.25,72912.3,-15.95,-16.89,-16.83,0,*56
1511751746.8,8915,7.25,72914.5,-15.93,-16.89,-16.89,0,*5B
1511751748.04,8916,7.25,72916.0,-15.93,-16.89,-16.89,0,*58
1511751749.27,8917,7.25,72914.8,-15.93,-16.89,-16.89,0,*59
1511751750.51,8918,7.25,72916.5,-15.93,-16.83,-16.89,0,*5C
1511751751.74,8919,7.25,72918.3,-15.93,-16.83,-16.89,0,*5D
1511751752.98,8920,7.19,72912.8,-15.93,-16.83,-16.83,0,*5D
1511751754.23,8921,7.25,72914.5,-15.93,-16.83,-16.83,0,*5C
1511751755.47,8922,7.25,72912.5,-15.93,-16.83,-16.83,0,*5F
1511751756.71,8923,7.19,72912.8,-15.93,-16.79,-16.83,0,*5B
1511751757.95,8924,7.19,72914.3,-15.93,-16.83,-16.79,0,*5C
1511751759.19,8925,7.25,72912.0,-15.93,-16.83,-16.83,0,*58
1511751760.43,8926,7.25,72912.0,-15.93,-16.83,-16.83,0,*5B
1511751761.67,8927,7.25,72912.0,-15.93,-16.79,-16.79,0,*5A
1511751762.91,8928,7.25,72908.8,-15.93,-16.79,-16.79,0,*55
1511751764.15,8929,7.25,72910.3,-15.93,-16.79,-16.79,0,*54
1511751765.39,8930,7.25,72908.3,-15.93,-16.83,-16.83,0,*5C
1511751766.61,8931,7.25,72908.8,-15.91,-16.75,-16.75,0,*5F
1511751767.83,8932,7.25,72908.0,-15.91,-16.75,-16.75,0,*5C
1511751769.04,8933,7.25,72906.3,-15.91,-16.79,-16.79,0,*5D
1511751770.26,8934,7.25,72904.5,-15.91,-16.75,-16.75,0,*5A
1511751771.48,8935,7.25,72906.8,-15.91,-16.79,-16.79,0,*5B
1511751772.71,8936,7.25,72904.5,-15.91,-16.79,-16.65,0,*55
1511751773.96,8937,7.25,72904.8,-15.93,-16.79,-16.79,0,*5B
1511751775.2,8938,7.25,72906.5,-15.93,-16.83,-16.83,0,*54
1511751776.44,8939,7.25,72908.5,-15.93,-16.79,-16.79,0,*55
1511751777.68,8940,7.25,72910.0,-15.93,-16.79,-16.83,0,*5E
1511751778.89,8941,7.19,72910.3,-15.91,-16.79,-16.79,0,*58
1511751780.11,8942,7.25,72914.8,-15.91,-16.79,-16.79,0,*5B
1511751781.35,8943,7.25,72908.8,-15.93,-16.83,-16.83,0,*58
1511751782.59,8944,7.25,72910.8,-15.93,-16.83,-16.83,0,*5F
1511751783.83,8945,7.25,72910.5,-15.93,-16.83,-16.79,0,*5B
1511751785.09,8946,7.25,72914.0,-15.93,-16.79,-16.69,0,*5C
1511751786.33,8947,7.25,72914.8,-15.93,-16.79,-16.83,0,*59
1511751787.55,8948,7.25,72916.3,-15.91,-16.79,-16.79,0,*51
1511751788.76,8949,7.25,72916.5,-15.91,-16.79,-16.79,0,*50
1511751789.98,8950,7.25,72916.0,-15.91,-16.75,-16.79,0,*54
1511751791.19,8951,7.25,72916.5,-15.91,-16.79,-16.75,0,*55
1511751792.41,8952,7.25,72916.5,-15.91,-16.79,-16.79,0,*5A
1511751793.62,8953,7.25,72914.3,-15.91,-16.79,-16.79,0,*5B
1511751794.84,8954,7.25,72912.5,-15.91,-16.75,-16.79,0,*50
1511751796.05,8955,7.25,72914.8,-15.95,-16.83,-16.79,0,*5C
1511751797.29,8956,7.25,72914.5,-15.93,-16.83,-16.83,0,*5C
1511751798.53,8957,7.25,72918.0,-15.93,-16.83,-16.79,0,*58
1511751799.77,8958,7.25,72914.3,-15.93,-16.79,-16.83,0,*57
1511751801.01,8959,7.25,72914.0,-15.93,-16.83,-16.83,0,*53
1511751802.23,8960,7.25,72914.8,-15.91,-16.75,-16.79,0,*57
1511751803.45,8961,7.25,72916.3,-15.91,-16.83,-16.79,0,*5F
1511751804.66,8962,7.25,72912.3,-15.91,-16.83,-16.79,0,*5C
1511751805.9,8963,7.25,72914.5,-15.89,-16.83,-16.83,0,*51
1511751807.11,8964,7.25,72914.5,-15.91,-16.79,-16.79,0,*5F
1511751808.35,8965,7.19,72908.5,-15.93,-16.79,-16.83,0,*59
1511751809.59,8966,7.25,72912.5,-15.93,-16.89,-16.83,0,*55
1511751810.83,8967,7.25,72914.5,-15.93,-16.83,-16.83,0,*5E
1511751812.07,8968,7.25,72914.3,-15.93,-16.83,-16.83,0,*51
1511751813.31,8969,7.25,72916.3,-15.93,-16.83,-16.83,0,*50
1511751814.55,8970,7.25,72918.5,-15.93,-16.83,-16.79,0,*5D
1511751815.77,8971,7.19,72912.0,-15.91,-16.75,-16.79,0,*57
1511751816.98,8972,7.25,72914.3,-15.91,-16.79,-16.79,0,*58
1511751818.2,8973,7.25,72912.0,-15.91,-16.79,-16.79,0,*59
1511751819.44,8974,7.25,72914.0,-15.93,-16.83,-16.79,0,*59
1511751820.68,8975,7.25,72912.5,-15.93,-16.83,-16.79,0,*58
1511751821.92,8976,7.19,72908.0,-15.93,-16.79,-16.79,0,*5E
1511751823.14,8977,7.25,72914.3,-15.91,-16.79,-16.75,0,*51
1511751824.36,8978,7.25,72914.0,-15.91,-16.75,-16.75,0,*52
1511751825.6,8979,7.19,72908.5,-15.93,-16.79,-16.83,0,*54
1511751826.84,8980,7.25,72910.0,-15.93,-16.83,-16.83,0,*57
1511751828.05,8981,7.25,72912.0,-15.91,-16.79,-16.75,0,*58
1511751829.27,8982,7.25,72908.8,-15.91,-16.79,-16.75,0,*5B
1511751830.49,8983,7.25,72912.0,-15.91,-16.79,-16.79,0,*56
1511751831.7,8984,7.25,72912.8,-15.91,-16.75,-16.79,0,*5D
1511751832.91,8985,7.25,72912.8,-15.91,-16.79,-16.79,0,*50
1511751834.15,8986,7.25,72910.5,-15.89,-16.79,-16.75,0,*56
1511751835.37,8987,7.25,72910.3,-15.91,-16.79,-16.75,0,*5E
1511751836.59,8988,7.25,72910.0,-15.91,-16.79,-16.75,0,*51
1511751837.8,8989,7.19,72908.0,-15.91,-16.79,-16.79,0,*5C
1511751839.02,8990,7.25,72908.8,-15.91,-16.79,-16.75,0,*58
1511751840.23,8991,7.25,72910.3,-15.91,-16.75,-16.79,0,*59
1511751841.45,8992,7.25,72908.5,-15.91,-16.79,-16.75,0,*5A
1511751842.67,8993,7.25,72908.0,-15.91,-16.79,-16.75,0,*5B
1511751843.88,8994,7.25,72914.0,-15.91,-16.79,-16.79,0,*50
1511751845.12,8995,7.25,72912.0,-15.89,-16.75,-16.79,0,*54
1511751846.38,8996,7.19,72910.5,-15.89,-16.75,-16.65,0,*5A
1511751847.62,8997,7.25,72910.0,-15.89,-16.75,-16.75,0,*5A
1511751848.86,8998,7.25,72910.3,-15.91,-16.65,-16.75,0,*5D
1511751850.08,8999,7.19,72910.3,-15.91,-16.75,-16.75,0,*5D
1511751851.32,9000,7.25,72912.5,-15.93,-16.79,-16.79,0,*57
1511751852.61,9001,7.25,72908.5,-15.93,-16.69,-16.69,0,*56
1511751853.86,9002,7.19,72910.0,-15.89,-16.79,-16.65,0,*53
1511751855.13,9003,7.19,72908.8,-15.91,-16.65,-16.65,0,*56
1511751856.35,9004,7.25,72910.8,-15.91,-16.75,-16.75,0,*51
1511751857.61,9005,7.25,72910.3,-15.91,-16.65,-16.65,0,*50
1511751858.88,9006,7.25,72910.0,-15.89,-16.65,-16.59,0,*55
1511751860.14,9007,7.19,72908.8,-15.91,-16.65,-16.65,0,*52
1511751861.42,9008,7.25,72910.0,-15.89,-16.65,-16.65,0,*54
1511751862.67,9009,7.25,72908.0,-15.91,-16.65,-16.59,0,*53
1511751863.93,9010,7.19,72908.3,-15.89,-16.65,-16.59,0,*52
1511751865.2,9011,7.25,72912.3,-15.91,-16.65,-16.65,0,*55
1511751866.46,9012,7.25,72912.0,-15.91,-16.65,-16.65,0,*56
1511751867.75,9013,7.25,72910.8,-15.89,-16.65,-16.65,0,*5E
1511751869.01,9014,7.19,72908.5,-15.91,-16.65,-16.65,0,*50
1511751870.27,9015,7.19,72910.0,-15.91,-16.65,-16.65,0,*51
1511751871.54,9016,7.19,72910.5,-15.91,-16.65,-16.65,0,*52
1511751872.8,9017,7.25,72910.0,-15.91,-16.65,-16.65,0,*53
1511751874.05,9018,7.25,72908.0,-15.91,-16.65,-16.59,0,*53
1511751875.31,9019,7.25,72912.5,-15.91,-16.65,-16.65,0,*5D
1511751876.59,9020,7.25,72912.3,-15.89,-16.65,-16.65,0,*5E
1511751877.81,9021,7.19,72910.3,-15.91,-16.75,-16.59,0,*58
1511751879.07,9022,7.25,72910.5,-15.89,-16.75,-16.65,0,*5D
1511751880.29,9023,7.19,72908.3,-15.91,-16.75,-16.59,0,*5A
1511751881.57,9024,7.25,72908.3,-15.89,-16.65,-16.65,0,*5A
1511751882.81,9025,7.25,72908.3,-15.91,-16.75,-16.65,0,*53
1511751884.1,9026,7.25,72908.8,-15.89,-16.65,-16.65,0,*58
1511751885.36,9027,7.25,72908.5,-15.89,-16.65,-16.75,0,*58
1511751886.62,9028,7.19,72904.0,-15.89,-16.75,-16.65,0,*57
1511751887.86,9029,7.25,72908.8,-15.91,-16.75,-16.65,0,*5F
1511751889.14,9030,7.25,72908.5,-15.89,-16.65,-16.65,0,*5F
1511751890.41,9031,7.19,72910.5,-15.91,-16.65,-16.65,0,*57
1511751891.67,9032,7.25,72908.5,-15.89,-16.65,-16.59,0,*52
1511751892.91,9033,7.25,72910.8,-15.89,-16.75,-16.59,0,*52
1511751894.17,9034,7.25,72916.3,-15.89,-16.75,-16.65,0,*5A
1511751895.41,9035,7.25,72914.8,-15.91,-16.75,-16.65,0,*52
1511751896.64,9036,7.25,72914.3,-15.91,-16.75,-16.65,0,*51
1511751897.88,9037,7.25,72914.3,-15.89,-16.79,-16.75,0,*54
1511751899.12,9038,7.25,72914.5,-15.89,-16.79,-16.79,0,*57
1511751900.35,9039,7.25,72910.8,-15.89,-16.79,-16.79,0,*56
1511751901.59,9040,7.25,72908.8,-15.89,-16.79,-16.75,0,*54
1511751902.81,9041,7.25,72904.0,-15.91,-16.79,-16.75,0,*5C
1511751904.04,9042,7.19,72898.3,-15.89,-16.75,-16.79,0,*56
1511751905.28,9043,7.19,72900.3,-15.89,-16.75,-16.75,0,*5B
1511751906.52,9044,7.25,72910.8,-15.89,-16.79,-16.75,0,*50
1511751907.76,9045,7.19,72908.3,-15.89,-16.75,-16.79,0,*51
1511751909.01,9046,7.25,72914.3,-15.89,-16.79,-16.65,0,*53
1511751910.23,9047,7.25,72914.0,-15.91,-16.79,-16.75,0,*5A
1511751911.44,9048,7.25,72910.8,-15.91,-16.75,-16.79,0,*55
1511751912.66,9049,7.25,72914.0,-15.91,-16.75,-16.75,0,*58
1511751913.9,9050,7.25,72912.5,-15.89,-16.75,-16.75,0,*59
1511751915.16,9051,7.19,72912.0,-15.89,-16.79,-16.65,0,*55
1511751916.4,9052,7.25,72912.3,-15.89,-16.79,-16.75,0,*57
1511751917.63,9053,7.25,72912.3,-15.89,-16.75,-16.79,0,*56
1511751918.87,9054,7.25,72914.0,-15.89,-16.75,-16.75,0,*5D
1511751920.11,9055,7.25,72914.5,-15.89,-16.79,-16.75,0,*50
1511751921.35,9056,7.25,72914.3,-15.89,-16.75,-16.75,0,*5F
1511751922.56,9057,7.19,72912.8,-15.91,-16.75,-16.79,0,*5B
1511751923.8,9058,7.25,72912.8,-15.89,-16.75,-16.79,0,*5D
1511751925.04,9059,7.25,72914.5,-15.89,-16.79,-16.75,0,*5C
1511751926.27,9060,7.25,72912.0,-15.89,-16.75,-16.79,0,*56
1511751927.51,9061,7.25,72914.5,-15.89,-16.75,-16.79,0,*57
1511751928.75,9062,7.19,72910.5,-15.89,-16.75,-16.75,0,*58
1511751929.99,9063,7.25,72908.5,-15.89,-16.79,-16.75,0,*55
1511751931.22,9064,7.25,72912.3,-15.89,-16.75,-16.79,0,*52
1511751932.46,9065,7.25,72914.5,-15.89,-16.75,-16.75,0,*5F
1511751933.7,9066,7.25,72914.0,-15.89,-16.75,-16.79,0,*50
1511751934.92,9067,7.19,72910.8,-15.91,-16.75,-16.75,0,*54
1511751936.15,9068,7.19,72908.8,-15.89,-16.75,-16.75,0,*52
1511751937.39,9069,7.25,72910.0,-15.89,-16.75,-16.75,0,*53
1511751938.61,9070,7.25,72912.3,-15.91,-16.79,-16.75,0,*5E
1511751939.85,9071,7.25,72914.5,-15.89,-16.75,-16.75,0,*5A
1511751941.09,9072,7.25,72912.0,-15.89,-16.75,-16.75,0,*59
1511751942.33,9073,7.19,72908.0,-15.89,-16.79,-16.75,0,*54
1511751943.56,9074,7.19,72906.8,-15.89,-16.75,-16.79,0,*53
1511751944.78,9075,7.25,72910.3,-15.91,-16.75,-16.75,0,*57
1511751946.02,9076,7.25,72908.8,-15.89,-16.75,-16.75,0,*5D
1511751947.28,9077,7.19,72904.8,-15.89,-16.75,-16.65,0,*5D
1511751948.54,9078,7.25,72908.5,-15.89,-16.75,-16.65,0,*52
1511751949.8,9079,7.25,72910.5,-15.89,-16.75,-16.65,0,*53
1511751951.04,9080,7.19,72902.8,-15.89,-16.75,-16.75,0,*54
1511751952.27,9081,7.25,72902.8,-15.89,-16.79,-16.75,0,*59
1511751953.51,9082,7.19,72902.0,-15.89,-16.75,-16.75,0,*56
1511751954.77,9083,7.25,72902.0,-15.89,-16.79,-16.65,0,*5A
1511751956.01,9084,7.25,72904.3,-15.89,-16.75,-16.75,0,*50
1511751957.25,9085,7.25,72908.8,-15.89,-16.75,-16.75,0,*51
1511751958.51,9086,7.19,72908.5,-15.89,-16.75,-16.65,0,*53
1511751959.79,9087,7.19,72908.8,-15.89,-16.65,-16.65,0,*53
1511751961.04,9088,7.19,72910.0,-15.85,-16.59,-16.59,0,*50
1511751962.28,9089,7.25,72912.0,-15.89,-16.75,-16.75,0,*5D
1511751963.52,9090,7.25,72912.5,-15.89,-16.75,-16.75,0,*55
1511751964.76,9091,7.25,72910.5,-15.89,-16.79,-16.75,0,*58
1511751965.99,9092,7.25,72910.5,-15.89,-16.79,-16.75,0,*5B
1511751967.23,9093,7.25,72912.5,-15.89,-16.75,-16.75,0,*56
1511751968.47,9094,7.25,72914.8,-15.89,-16.75,-16.75,0,*51
1511751969.71,9095,7.19,72912.0,-15.89,-16.79,-16.75,0,*5C
1511751970.94,9096,7.25,72912.0,-15.89,-16.79,-16.79,0,*53
1511751972.18,9097,7.19,72914.5,-15.89,-16.79,-16.79,0,*52
1511751973.41,9098,7.25,72916.3,-15.89,-16.75,-16.79,0,*51
1511751974.65,9099,7.25,72918.5,-15.89,-16.79,-16.75,0,*50
1511751975.89,9100,7.19,72914.5,-15.89,-16.79,-16.75,0,*51
1511751977.13,9101,7.25,72914.8,-15.89,-16.79,-16.75,0,*50
1511751978.39,9102,7.25,72914.0,-15.85,-16.75,-16.69,0,*5E
1511751979.69,9103,7.25,72910.0,-15.85,-16.69,-16.69,0,*52
1511751980.95,9104,7.25,72910.0,-15.85,-16.75,-16.69,0,*58
1511751982.22,9105,7.25,72910.3,-15.85,-16.75,-16.69,0,*59
1511751983.49,9106,7.25,72892.3,-15.85,-16.75,-16.69,0,*5A
1511751984.76,9107,7.25,72884.3,-15.85,-16.69,-16.75,0,*5B
1511751985.99,9108,7.25,72888.5,-15.83,-16.75,-16.69,0,*52
1511751987.26,9109,7.25,72890.3,-15.85,-16.69,-16.59,0,*5B
1511751988.53,9110,7.25,72894.8,-15.85,-16.69,-16.59,0,*53
1511751989.82,9111,7.25,72900.3,-15.85,-16.69,-16.69,0,*51
1511751991.08,9112,7.25,72908.3,-15.89,-16.79,-16.65,0,*53
1511751992.37,9113,7.25,72910.3,-15.85,-16.69,-16.69,0,*53
1511751993.62,9114,7.25,72910.3,-15.85,-16.59,-16.59,0,*54
1511751994.91,9115,7.25,72912.8,-15.85,-16.69,-16.69,0,*55
1511751996.15,9116,7.25,72912.5,-15.89,-16.75,-16.75,0,*5A
1511751997.42,9117,7.19,72908.5,-15.85,-16.69,-16.59,0,*54
1511751998.66,9118,7.19,72904.3,-15.85,-16.75,-16.59,0,*56
1511751999.91,9119,7.25,72908.3,-15.85,-16.59,-16.59,0,*59
1511752001.2,9120,7.25,72906.5,-15.85,-16.69,-16.69,0,*53
1511752002.47,9121,7.25,72908.3,-15.85,-16.69,-16.75,0,*5F
1511752003.76,9122,7.25,72904.5,-15.85,-16.69,-16.69,0,*51
1511752005.05,9123,7.25,72910.3,-15.85,-16.69,-16.69,0,*50
1511752006.29,9124,7.19,72902.8,-15.89,-16.79,-16.75,0,*57
1511752007.53,9125,7.25,72908.0,-15.89,-16.75,-16.79,0,*56
1511752008.82,9126,7.25,72906.5,-15.85,-16.69,-16.69,0,*55
1511752010.05,9127,7.25,72906.5,-15.89,-16.75,-16.75,0,*58
1511752011.31,9128,7.19,72902.5,-15.89,-16.79,-16.65,0,*5A
1511752012.56,9129,7.25,72904.0,-15.85,-16.75,-16.55,0,*58
1511752013.82,9130,7.25,72906.3,-15.85,-16.75,-16.69,0,*5F
1511752015.09,9131,7.25,72906.3,-15.85,-16.75,-16.69,0,*5E
1511752016.38,9132,7.25,72906.5,-15.85,-16.69,-16.69,0,*50
1511752017.67,9133,7.25,72904.3,-15.85,-16.69,-16.69,0,*51
1511752018.96,9134,7.25,72902.3,-15.85,-16.69,-16.69,0,*56
1511752020.21,9135,7.25,72902.0,-15.85,-16.75,-16.75,0,*57
1511752021.5,9136,7.19,72902.5,-15.85,-16.69,-16.69,0,*54
1511752022.79,9137,7.25,72908.8,-15.85,-16.69,-16.69,0,*55
1511752024.08,9138,7.25,72914.5,-15.85,-16.69,-16.69,0,*5A
1511752025.35,9139,7.25,72914.8,-15.85,-16.69,-16.59,0,*58
1511752026.62,9140,7.25,72918.5,-15.85,-16.69,-16.59,0,*56
1511752027.89,9141,7.25,72916.5,-15.85,-16.69,-16.59,0,*57
1511752029.16,9142,7.19,72908.8,-15.85,-16.69,-16.59,0,*54
1511752030.45,9143,7.19,72908.0,-15.85,-16.69,-16.69,0,*56
1511752031.74,9144,7.25,72912.3,-15.85,-16.69,-16.69,0,*51
1511752033.01,9145,7.25,72916.0,-15.85,-16.69,-16.55,0,*5F
1511752034.27,9146,7.25,72914.5,-15.85,-16.69,-16.55,0,*5C
1511752035.52,9147,7.25,72912.8,-15.85,-16.59,-16.59,0,*52
1511752036.76,9148,7.25,72910.5,-15.85,-16.59,-16.59,0,*5D
1511752038.03,9149,7.25,72908.5,-15.85,-16.69,-16.55,0,*53
1511752039.28,9150,7.25,72908.3,-15.85,-16.59,-16.55,0,*58
1511752040.52,9151,7.25,72908.0,-15.85,-16.55,-16.59,0,*59
1511752041.74,9152,7.25,72908.8,-15.83,-16.59,-16.55,0,*5C
1511752042.98,9153,7.25,72904.5,-15.85,-16.59,-16.55,0,*5B
1511752044.23,9154,7.19,72900.5,-15.85,-16.55,-16.59,0,*5C
1511752045.44,9155,7.25,72902.3,-15.83,-16.59,-16.59,0,*57
1511752046.66,9156,7.19,72900.0,-15.83,-16.59,-16.55,0,*58
1511752047.87,9157,7.25,72904.0,-15.83,-16.59,-16.59,0,*55
1511752049.12,9158,7.19,72900.3,-15.85,-16.55,-16.55,0,*5C
1511752050.36,9159,7.25,72896.8,-15.85,-16.59,-16.59,0,*5D
1511752051.61,9160,7.25,72902.8,-15.85,-16.59,-16.59,0,*57
1511752052.86,9161,7.19,72906.5,-15.85,-16.55,-16.59,0,*5A
1511752054.07,9162,7.19,72906.0,-15.83,-16.55,-16.55,0,*53
1511752055.32,9163,7.25,72912.5,-15.85,-16.59,-16.59,0,*54
1511752056.53,9164,7.25,72908.8,-15.83,-16.59,-16.55,0,*59
1511752057.74,9165,7.25,72910.0,-15.83,-16.59,-16.55,0,*58
1511752058.99,9166,7.19,72906.5,-15.85,-16.59,-16.55,0,*5D
1511752060.23,9167,7.25,72910.5,-15.85,-16.59,-16.55,0,*5C
1511752061.44,9168,7.19,72906.8,-15.83,-16.59,-16.59,0,*59
1511752062.66,9169,7.19,72904.0,-15.83,-16.55,-16.59,0,*54
1511752063.88,9170,7.25,72904.0,-15.83,-16.55,-16.55,0,*50
1511752065.13,9171,7.19,72902.0,-15.85,-16.55,-16.59,0,*5B
1511752066.34,9172,7.25,72906.3,-15.83,-16.59,-16.59,0,*52
1511752067.55,9173,7.25,72904.0,-15.83,-16.59,-16.55,0,*5F
1511752068.77,9174,7.19,72904.0,-15.83,-16.59,-16.59,0,*54
1511752069.99,9175,7.19,72906.0,-15.83,-16.59,-16.59,0,*55
1511752071.22,9176,7.19,72908.3,-15.83,-16.69,-16.55,0,*59
1511752072.48,9177,7.19,72908.3,-15.83,-16.69,-16.69,0,*57
1511752073.72,9178,7.19,72904.8,-15.83,-16.69,-16.55,0,*57
1511752074.98,9179,7.25,72910.8,-15.83,-16.69,-16.69,0,*59
1511752076.21,9180,7.25,72912.0,-15.83,-16.69,-16.55,0,*50
1511752077.45,9181,7.19,72908.0,-15.83,-16.69,-16.59,0,*5D
1511752078.7,9182,7.25,72912.8,-15.85,-16.75,-16.59,0,*55
1511752079.94,9183,7.25,72912.0,-15.83,-16.69,-16.59,0,*5F
1511752081.2,9184,7.19,72912.3,-15.83,-16.69,-16.69,0,*5B
1511752082.44,9185,7.19,72914.0,-15.83,-16.59,-16.69,0,*59
1511752083.68,9186,7.19,72912.3,-15.83,-16.69,-16.75,0,*54
1511752084.91,9187,7.25,72914.5,-15.83,-16.75,-16.69,0,*55
1511752086.17,9188,7.19,72910.8,-15.83,-16.69,-16.69,0,*57
1511752087.43,9189,7.19,72908.8,-15.83,-16.69,-16.69,0,*56
1511752088.67,9190,7.25,72910.8,-15.83,-16.75,-16.69,0,*53
1511752089.94,9191,7.19,72906.3,-15.85,-16.75,-16.69,0,*54
1511752091.18,9192,7.25,72908.5,-15.85,-16.75,-16.75,0,*5A
1511752092.4,9193,7.19,72904.5,-15.83,-16.75,-16.75,0,*5D
1511752093.64,9194,7.19,72906.5,-15.83,-16.75,-16.69,0,*57
1511752094.87,9195,7.25,72908.5,-15.83,-16.75,-16.69,0,*56
1511752096.11,9196,7.19,72908.3,-15.83,-16.75,-16.69,0,*55
1511752097.33,9197,7.25,72918.0,-15.83,-16.75,-16.75,0,*59
1511752098.54,9198,7.19,72914.5,-15.83,-16.75,-16.75,0,*56
1511752099.76,9199,7.25,72914.0,-15.83,-16.75,-16.75,0,*57
1511752101.01,9200,7.25,72908.8,-15.85,-16.75,-16.75,0,*52
1511752102.22,9201,7.25,72908.5,-15.83,-16.75,-16.75,0,*55
1511752103.44,9202,7.25,72910.8,-15.83,-16.75,-16.75,0,*56